Simultaneous Nadir Overpasses (SNOs) Predictions

Prediction of SNOs between METOP-B and NOAA-19 Satellite Orbit:

Table of predicted SNOs for the next 14.0 days since TLE Epoch: 8/29/2014
Index Date (METOP-B) Time (METOP-B) Lat,Lon (METOP-B) SZA (METOP-B ) Date (NOAA-19) Time (NOAA-19) Lat,Lon (NOAA-19) SZA (NOAA-19 ) Distance(km) Time Diff (sec)
1 09/03/2014 22:42:23 74.42,-164.87 67.07 09/03/2014 22:41:10 74.43,-165.72 67.11 25.44 73
2 09/03/2014 23:33:09 -74.24, 1.98 113.10 09/03/2014 23:32:07 -74.25, 2.02 113.08 1.69 62
3 09/04/2014 00:23:49 74.20, 169.23 66.89 09/04/2014 00:23:09 74.22, 169.34 66.90 3.51 40
4 09/04/2014 01:14:31 -74.21, -23.42 113.09 09/04/2014 01:14:10 -74.22, -23.43 113.08 1.02 21
5 09/04/2014 02:05:11 74.18, 143.84 66.90 09/04/2014 02:05:12 74.19, 143.88 66.91 1.95 1
6
